Location: Focicchia
(42.2496°N, 9.2935°E)
Time: 03:46:15
(UTC+00:00)

X-37B - Pass Details

Date: 07 August 2021
Orbit: 381 x 393 km, 45.0° (Epoch: 29 August)

Event Time Altitude Azimuth Distance (km) Brightness Sun altitude
Exits shadow 02:33:16 35° 297° (WNW) 642 1.5 -17.6°
Maximum altitude 02:34:16 52° 353° (N) 482 1.2 -17.5°
Drops below altitude 10° 02:37:21 10° 71° (ENE) 1,398 4.4 -17.0°
Sets 02:39:27 0° 77° (ENE) 2,252 5.6 -16.8°
